Location: Boissi�res
(45.2500°N, 2.3667°E)
Time: 19:20:31
(UTC+00:00)

ATLAS CENTAUR R/B - Pass Details

Date: 03 March 2021
Orbit: 475 x 670 km, 64.7° (Epoch: 30 March)

Event Time Altitude Azimuth Distance (km) Brightness Sun altitude
Rises 19:56:33 0° 243° (WSW) 2,520 5.4 -24.5°
Reaches altitude 10° 19:58:53 10° 256° (WSW) 1,642 4.5 -24.9°
Maximum altitude 20:02:02 27° 316° (NW) 947 3.0 -25.4°
Enters shadow 20:03:16 22° 349° (N) 1,084 3.1 -25.6°
